Sauk Centre, MN

6:03 PM CDT on October 13, 2019 (GMT -0500)
Sauk Centre

Weather History for KD39 - August, 2019

Change the Weather History Date:

Friday, August 16, 2019

  Actual Average (WUND) Record (WUND)
Temperature  
Mean Temperature 68 °F -  
Max Temperature 78 °F - - (-1)
Min Temperature 57 °F - - (-1)
Cooling Degree Days 2    
Growing Degree Days 18 (Base 50)    
Moisture  
Dew Point 60 °F    
Average Humidity 81    
Maximum Humidity 99    
Minimum Humidity 53    
Precipitation  
Precipitation 0.00 in - - ()
Sea Level Pressure  
Sea Level Pressure 29.83 in    
Wind  
Wind Speed 5 mph (WSW)    
Max Wind Speed 14 mph    
Max Gust Speed 20 mph    
Visibility 10 miles    
Events      
Averages and records for this station are not official NWS values.
T = Trace of Precipitation, MM = Missing Value Source: NWS Daily Summary

Daily Weather History Graph

Daily Weather History Graph

Search for Another Location

Airport or City:

Astronomy

Aug. 16, 2019 Rise Set
Actual Time 6:20 AM CDT 8:26 PM CDT
Civil Twilight 5:48 AM CDT 8:58 PM CDT
Nautical Twilight 5:08 AM CDT 9:38 PM CDT
Astronomical Twilight 4:24 AM CDT 10:22 PM CDT
Moon 9:23 PM CDT (8/16) 7:13 AM CDT (8/16)
Length of Visible Light 15h 10m
Length of Day
14h 05m
Full, 99% of the Moon is Illuminated
Aug 16
Full
Aug 23
Last Quarter
Aug 30
New
Sep 5
First Quarter
Sep 13
Full

Hourly Weather History & Observations

Time (CDT) Temp. Dew Point Humidity Pressure Visibility Wind Dir Wind Speed Gust Speed Precip Events Conditions
12:16 AM 59.9 °F 59.0 °F 97% 29.82 in 10.0 mi Calm Calm - N/A   Light Drizzle
12:36 AM 60.1 °F 59.2 °F 97% 29.82 in 10.0 mi SSW 3.5 mph - N/A   Overcast
12:55 AM 60.3 °F 59.4 °F 97% 29.82 in 10.0 mi Calm Calm - N/A   Overcast
12:56 AM 60.3 °F 59.4 °F 97% 29.82 in 10.0 mi WSW 3.5 mph - N/A   Overcast
1:15 AM 60.4 °F 59.5 °F 97% 29.82 in 10.0 mi SSW 3.5 mph - N/A   Overcast
1:19 AM 60.4 °F 59.9 °F 98% 29.82 in 10.0 mi Calm Calm - N/A   Overcast
1:38 AM 60.4 °F 59.9 °F 98% 29.81 in 10.0 mi SSW 3.5 mph - N/A   Overcast
1:57 AM 60.6 °F 59.9 °F 97% 29.81 in 10.0 mi Calm Calm - N/A   Overcast
2:16 AM 60.8 °F 59.9 °F 97% 29.80 in 10.0 mi WSW 3.5 mph - N/A   Overcast
2:35 AM 60.8 °F 59.9 °F 97% 29.80 in 10.0 mi Calm Calm - N/A   Overcast
2:36 AM 60.8 °F 59.9 °F 97% 29.80 in 10.0 mi Calm Calm - N/A   Overcast
2:55 AM 61.0 °F 60.1 °F 97% 29.80 in 10.0 mi West 3.5 mph - N/A   Overcast
3:17 AM 61.0 °F 60.3 °F 97% 29.80 in 10.0 mi WNW 3.5 mph - N/A   Overcast
3:36 AM 60.8 °F 59.9 °F 97% 29.80 in 10.0 mi West 3.5 mph - N/A   Overcast
3:55 AM 60.1 °F 59.4 °F 97% 29.80 in 10.0 mi West 3.5 mph - N/A   Mostly Cloudy
3:56 AM 60.1 °F 59.4 °F 97% 29.80 in 10.0 mi West 4.6 mph - N/A   Mostly Cloudy
4:15 AM 60.4 °F 59.9 °F 98% 29.81 in 10.0 mi West 3.5 mph - N/A   Mostly Cloudy
4:16 AM 60.4 °F 59.9 °F 98% 29.81 in 10.0 mi West 3.5 mph - N/A   Mostly Cloudy
4:38 AM 60.8 °F 60.3 °F 98% 29.81 in 10.0 mi West 5.8 mph - N/A   Overcast
4:56 AM 60.8 °F 60.1 °F 97% 29.81 in 10.0 mi West 5.8 mph - N/A   Overcast
5:16 AM 60.3 °F 59.9 °F 99% 29.82 in 10.0 mi West 4.6 mph - N/A   Mostly Cloudy
5:35 AM 59.4 °F 59.0 °F 99% 29.82 in 10.0 mi West 5.8 mph - N/A   Scattered Clouds
5:36 AM 59.2 °F 59.0 °F 99% 29.82 in 10.0 mi West 5.8 mph - N/A   Scattered Clouds
5:55 AM 58.5 °F 58.1 °F 99% 29.82 in 10.0 mi West 5.8 mph - N/A   Scattered Clouds
5:56 AM 58.5 °F 58.1 °F 99% 29.82 in 10.0 mi West 5.8 mph - N/A   Scattered Clouds
6:18 AM 57.6 °F 57.2 °F 99% 29.84 in 10.0 mi West 6.9 mph - N/A   Clear
6:36 AM 57.7 °F 57.4 °F 99% 29.84 in 10.0 mi West 4.6 mph - N/A   Clear
6:55 AM 57.7 °F 57.2 °F 98% 29.83 in 10.0 mi West 4.6 mph - N/A   Clear
7:15 AM 58.3 °F 57.6 °F 97% 29.83 in 10.0 mi Calm Calm - N/A   Clear
7:16 AM 58.3 °F 57.6 °F 97% 29.83 in 10.0 mi West 3.5 mph - N/A   Clear
7:35 AM 58.5 °F 57.9 °F 98% 29.83 in 10.0 mi Calm Calm - N/A   Clear
7:57 AM 59.9 °F 59.0 °F 97% 29.84 in 10.0 mi West 4.6 mph - N/A   Clear
8:16 AM 60.4 °F 59.2 °F 96% 29.84 in 10.0 mi West 4.6 mph - N/A   Clear
8:36 AM 61.5 °F 59.7 °F 94% 29.84 in 10.0 mi WSW 6.9 mph - N/A   Scattered Clouds
8:55 AM 60.4 °F 58.8 °F 94% 29.85 in 10.0 mi West 8.1 mph - N/A   Mostly Cloudy
9:15 AM 60.8 °F 59.9 °F 97% 29.84 in 10.0 mi West 6.9 mph - N/A   Overcast
9:37 AM 61.7 °F 59.7 °F 93% 29.85 in 10.0 mi WSW 8.1 mph - N/A   Overcast
9:56 AM 62.2 °F 60.1 °F 93% 29.86 in 10.0 mi SW 11.5 mph - N/A   Overcast
10:15 AM 63.9 °F 59.9 °F 87% 29.86 in 10.0 mi West 6.9 mph - N/A   Overcast
10:16 AM 64.0 °F 59.9 °F 86% 29.86 in 10.0 mi West 6.9 mph - N/A   Overcast
10:35 AM 64.9 °F 60.3 °F 85% 29.86 in 10.0 mi West 5.8 mph - N/A   Scattered Clouds
10:36 AM 64.9 °F 60.1 °F 84% 29.86 in 10.0 mi West 5.8 mph - N/A   Scattered Clouds
10:59 AM 66.6 °F 60.6 °F 81% 29.85 in 10.0 mi West 5.8 mph - N/A   Clear
11:16 AM 68.0 °F 61.2 °F 79% 29.86 in 10.0 mi WSW 6.9 mph - N/A   Clear
11:36 AM 69.4 °F 61.3 °F 75% 29.85 in 10.0 mi WSW 8.1 mph - N/A   Clear
11:55 AM 71.2 °F 61.9 °F 72% 29.85 in 10.0 mi West 8.1 mph - N/A   Clear
11:56 AM 71.2 °F 61.9 °F 72% 29.85 in 10.0 mi West 8.1 mph - N/A   Clear
12:15 PM 72.0 °F 61.3 °F 69% 29.85 in 10.0 mi West 8.1 mph - N/A   Clear
12:16 PM 72.1 °F 61.3 °F 69% 29.85 in 10.0 mi West 9.2 mph - N/A   Clear
12:38 PM 72.7 °F 63.1 °F 72% 29.85 in 10.0 mi West 10.4 mph - N/A   Clear
12:56 PM 73.4 °F 63.0 °F 70% 29.84 in 10.0 mi West 12.7 mph - N/A   Clear
1:16 PM 74.7 °F 61.9 °F 64% 29.84 in 10.0 mi West 11.5 mph 17.3 mph N/A   Clear
1:35 PM 75.0 °F 61.7 °F 63% 29.84 in 10.0 mi West 9.2 mph - N/A   Clear
1:36 PM 75.0 °F 62.1 °F 64% 29.84 in 10.0 mi West 10.4 mph - N/A   Clear
1:55 PM 75.9 °F 61.3 °F 60% 29.84 in 10.0 mi West 11.5 mph 16.1 mph N/A   Clear
2:15 PM 75.6 °F 60.6 °F 60% 29.84 in 10.0 mi West 13.8 mph 17.3 mph N/A   Clear
2:19 PM 76.1 °F 61.0 °F 59% 29.84 in 10.0 mi West 13.8 mph 18.4 mph N/A   Clear
2:37 PM 76.3 °F 60.4 °F 58% 29.84 in 10.0 mi WSW 9.2 mph 17.3 mph N/A   Scattered Clouds
2:55 PM 77.0 °F 61.2 °F 58% 29.84 in 10.0 mi West 11.5 mph 16.1 mph N/A   Scattered Clouds
3:15 PM 77.5 °F 59.9 °F 54% 29.83 in 10.0 mi West 10.4 mph 18.4 mph N/A   Scattered Clouds
3:35 PM 77.9 °F 60.4 °F 55% 29.83 in 10.0 mi West 11.5 mph - N/A   Mostly Cloudy
3:55 PM 78.3 °F 59.9 °F 53% 29.83 in 10.0 mi West 12.7 mph 19.6 mph N/A   Scattered Clouds
3:59 PM 78.1 °F 59.7 °F 53% 29.83 in 10.0 mi West 9.2 mph 19.6 mph N/A   Scattered Clouds
4:17 PM 76.3 °F 59.4 °F 56% 29.83 in 10.0 mi WNW 6.9 mph - N/A   Scattered Clouds
4:36 PM 77.4 °F 60.1 °F 55% 29.82 in 10.0 mi West 10.4 mph 18.4 mph N/A   Scattered Clouds
4:56 PM 77.0 °F 60.3 °F 56% 29.82 in 10.0 mi West 10.4 mph - N/A   Scattered Clouds
5:15 PM 76.6 °F 59.4 °F 55% 29.82 in 10.0 mi West 11.5 mph 16.1 mph N/A   Mostly Cloudy
5:35 PM 77.9 °F 59.4 °F 53% 29.82 in 10.0 mi West 12.7 mph - N/A   Scattered Clouds
5:39 PM 77.5 °F 59.4 °F 53% 29.82 in 10.0 mi West 10.4 mph - N/A   Scattered Clouds
5:58 PM 77.4 °F 60.1 °F 55% 29.82 in 10.0 mi West 12.7 mph - N/A   Clear
6:15 PM 77.0 °F 59.7 °F 55% 29.82 in 10.0 mi West 9.2 mph - N/A   Clear
6:35 PM 76.6 °F 58.6 °F 54% 29.82 in 10.0 mi West 6.9 mph - N/A   Clear
6:36 PM 76.6 °F 58.8 °F 54% 29.82 in 10.0 mi West 8.1 mph - N/A   Clear
6:55 PM 75.6 °F 59.2 °F 57% 29.82 in 10.0 mi West 8.1 mph - N/A   Clear
6:56 PM 75.6 °F 59.0 °F 56% 29.82 in 10.0 mi West 8.1 mph - N/A   Clear
7:18 PM 74.3 °F 59.9 °F 61% 29.82 in 10.0 mi WSW 4.6 mph - N/A   Clear
7:37 PM 72.5 °F 60.8 °F 67% 29.82 in 10.0 mi SW 3.5 mph - N/A   Clear
7:56 PM 71.1 °F 60.6 °F 69% 29.82 in 10.0 mi SW 4.6 mph - N/A   Clear
8:15 PM 69.4 °F 60.8 °F 74% 29.82 in 10.0 mi SSW 4.6 mph - N/A   Clear
8:16 PM 69.4 °F 60.8 °F 74% 29.82 in 10.0 mi SSW 3.5 mph - N/A   Clear
8:38 PM 67.5 °F 59.7 °F 76% 29.82 in 10.0 mi Calm Calm - N/A   Clear
8:57 PM 65.5 °F 59.9 °F 82% 29.82 in 10.0 mi Calm Calm - N/A   Clear
9:16 PM 65.1 °F 59.0 °F 81% 29.83 in 10.0 mi Calm Calm - N/A   Clear
9:35 PM 63.7 °F 59.2 °F 85% 29.83 in 10.0 mi South 3.5 mph - N/A   Clear
9:36 PM 63.7 °F 59.2 °F 85% 29.83 in 10.0 mi South 3.5 mph - N/A   Clear
9:55 PM 63.5 °F 59.0 °F 85% 29.84 in 10.0 mi Calm Calm - N/A   Clear
9:59 PM 63.5 °F 59.0 °F 85% 29.84 in 10.0 mi Calm Calm - N/A   Clear
10:17 PM 61.7 °F 58.5 °F 89% 29.84 in 10.0 mi SSE 4.6 mph - N/A   Clear
10:36 PM 61.2 °F 57.9 °F 89% 29.84 in 10.0 mi SSE 4.6 mph - N/A   Clear
10:55 PM 60.8 °F 58.1 °F 91% 29.84 in 10.0 mi Calm Calm - N/A   Clear
10:56 PM 60.8 °F 58.1 °F 91% 29.84 in 10.0 mi Calm Calm - N/A   Clear
11:15 PM 60.4 °F 57.6 °F 90% 29.84 in 10.0 mi SSE 3.5 mph - N/A   Clear
11:19 PM 60.4 °F 57.7 °F 91% 29.84 in 10.0 mi South 3.5 mph - N/A   Clear
11:38 PM 60.6 °F 57.6 °F 90% 29.85 in 10.0 mi SSE 3.5 mph - N/A   Clear
11:57 PM 59.9 °F 57.2 °F 91% 29.85 in 10.0 mi South 3.5 mph - N/A   Clear